GLO1465 SBSI-SBGR

Flight info

Callsign GLO1465
Flight time N/A
Altitude 39000
Route GELEB2A OBKAV DCT MIPAD UZ87 OBLUG UZ42 ZARES MOLLE1A
Aircraft B738/M-SDFGIKLORWXY/LB1

Departure

Time 2026-04-27 11:40
Airport Presidente João Batista Figueiredo Airport (SBSI)

Arrival

Time N/A
Airport São Paulo/Guarulhos–Governor André Franco Montoro International Airport (SBGR)
Time Latitude Longitude Altitude Speed Heading
2026-04-27 11:23 -11.87856 -55.58239 1255 ft 0 kts 105°
2026-04-27 11:30 -11.87849 -55.58258 1257 ft 4 kts 123°
2026-04-27 11:30 -11.87831 -55.58276 1248 ft 4 kts 166°
2026-04-27 11:31 -11.87805 -55.58276 1252 ft 4 kts 193°
2026-04-27 11:31 -11.87796 -55.58274 1250 ft 0 kts 195°
2026-04-27 11:33 -11.87797 -55.58274 1250 ft 1 kts 195°
2026-04-27 11:33 -11.87823 -55.58281 1251 ft 9 kts 195°
2026-04-27 11:33 -11.87844 -55.58337 1243 ft 10 kts 284°
2026-04-27 11:34 -11.87829 -55.58402 1244 ft 10 kts 283°
2026-04-27 11:34 -11.87861 -55.58456 1249 ft 10 kts 194°
2026-04-27 11:34 -11.87927 -55.58475 1252 ft 10 kts 197°
2026-04-27 11:34 -11.87992 -55.58495 1242 ft 10 kts 197°
2026-04-27 11:35 -11.88056 -55.58512 1242 ft 9 kts 192°
2026-04-27 11:35 -11.88119 -55.58527 1246 ft 9 kts 194°
2026-04-27 11:35 -11.88179 -55.58543 1243 ft 9 kts 195°
2026-04-27 11:35 -11.88238 -55.58559 1244 ft 9 kts 194°
2026-04-27 11:36 -11.88295 -55.58574 1249 ft 8 kts 194°
2026-04-27 11:36 -11.88350 -55.58589 1245 ft 8 kts 196°
2026-04-27 11:36 -11.88403 -55.58604 1245 ft 8 kts 194°
2026-04-27 11:36 -11.88465 -55.58621 1244 ft 11 kts 194°
2026-04-27 11:37 -11.88542 -55.58641 1245 ft 12 kts 194°
2026-04-27 11:37 -11.88621 -55.58660 1251 ft 11 kts 193°
2026-04-27 11:37 -11.88697 -55.58678 1253 ft 11 kts 192°
2026-04-27 11:37 -11.88772 -55.58695 1245 ft 11 kts 196°
2026-04-27 11:38 -11.88843 -55.58716 1244 ft 10 kts 195°
2026-04-27 11:38 -11.88913 -55.58735 1255 ft 10 kts 194°
2026-04-27 11:38 -11.88980 -55.58754 1245 ft 10 kts 196°
2026-04-27 11:38 -11.89045 -55.58773 1243 ft 10 kts 195°
2026-04-27 11:39 -11.89109 -55.58791 1245 ft 9 kts 195°
2026-04-27 11:39 -11.89172 -55.58789 1245 ft 9 kts 165°
2026-04-27 11:39 -11.89191 -55.58797 1242 ft 2 kts 244°
2026-04-27 11:39 -11.89185 -55.58805 1248 ft 2 kts 318°
2026-04-27 11:40 -11.89165 -55.58808 1247 ft 4 kts
2026-04-27 11:40 -11.88884 -55.58732 1257 ft 85 kts 14°
2026-04-27 11:40 -11.88055 -55.58509 1252 ft 158 kts 15°
2026-04-27 11:40 -11.86915 -55.58211 1843 ft 172 kts 15°
2026-04-27 11:41 -11.85860 -55.57641 2651 ft 179 kts 50°
2026-04-27 11:41 -11.85520 -55.56413 3253 ft 192 kts 95°
2026-04-27 11:41 -11.85809 -55.55006 3652 ft 214 kts 98°
2026-04-27 11:41 -11.85987 -55.53407 3941 ft 235 kts 92°
2026-04-27 11:42 -11.86052 -55.51676 4287 ft 255 kts 90°
2026-04-27 11:42 -11.86041 -55.49833 4955 ft 263 kts 89°
2026-04-27 11:42 -11.85996 -55.47967 5928 ft 263 kts 89°
2026-04-27 11:42 -11.86238 -55.46149 6823 ft 266 kts 111°
2026-04-27 11:43 -11.87237 -55.44551 7650 ft 273 kts 132°
2026-04-27 11:43 -11.88675 -55.43252 8467 ft 278 kts 139°
2026-04-27 11:43 -11.90205 -55.42002 9291 ft 283 kts 140°
2026-04-27 11:43 -11.91768 -55.40747 10113 ft 288 kts 140°
2026-04-27 11:44 -11.93383 -55.39448 10554 ft 307 kts 140°
2026-04-27 11:44 -11.95127 -55.38036 10790 ft 330 kts 140°
2026-04-27 11:44 -11.96951 -55.36554 11358 ft 339 kts 140°
2026-04-27 11:44 -11.98805 -55.35042 12091 ft 342 kts 140°
2026-04-27 11:45 -12.00675 -55.33513 12847 ft 346 kts 140°
2026-04-27 11:45 -12.01921 -55.32491 13324 ft 349 kts 140°
2026-04-27 11:45 -12.04449 -55.30417 14212 ft 354 kts 141°
2026-04-27 11:45 -12.06387 -55.28824 14832 ft 358 kts 141°
2026-04-27 11:46 -12.08342 -55.27216 15450 ft 363 kts 141°
2026-04-27 11:46 -12.10320 -55.25590 16070 ft 366 kts 141°
2026-04-27 11:46 -12.12312 -55.23950 16690 ft 370 kts 141°
2026-04-27 11:46 -12.14332 -55.22287 17279 ft 374 kts 141°
2026-04-27 11:47 -12.16375 -55.20605 17854 ft 379 kts 141°
2026-04-27 11:47 -12.18436 -55.18908 18401 ft 383 kts 141°
2026-04-27 11:47 -12.20521 -55.17190 18894 ft 386 kts 140°
2026-04-27 11:47 -12.22623 -55.15458 19389 ft 390 kts 140°
2026-04-27 11:48 -12.24718 -55.13731 19871 ft 393 kts 140°
2026-04-27 11:48 -12.26855 -55.11969 20356 ft 396 kts 140°
2026-04-27 11:48 -12.29012 -55.10191 20832 ft 400 kts 139°
2026-04-27 11:48 -12.31185 -55.08398 21299 ft 403 kts 139°
2026-04-27 11:49 -12.33382 -55.06586 21762 ft 407 kts 139°
2026-04-27 11:49 -12.35600 -55.04757 22195 ft 411 kts 139°
2026-04-27 11:49 -12.37856 -55.02942 22627 ft 415 kts 142°
2026-04-27 11:49 -12.40268 -55.01280 23068 ft 419 kts 145°
2026-04-27 11:50 -12.42769 -54.99704 23511 ft 423 kts 146°
2026-04-27 11:50 -12.45300 -54.98156 23882 ft 426 kts 146°
2026-04-27 11:50 -12.47851 -54.96597 24261 ft 428 kts 146°
2026-04-27 11:50 -12.50370 -54.95043 24650 ft 429 kts 146°
2026-04-27 11:51 -12.52926 -54.93449 25030 ft 431 kts 146°
2026-04-27 11:51 -12.55490 -54.91835 25399 ft 433 kts 146°
2026-04-27 11:51 -12.60639 -54.88566 26135 ft 437 kts 146°
2026-04-27 11:52 -12.63227 -54.86917 26496 ft 439 kts 147°
2026-04-27 11:52 -12.65826 -54.85260 26851 ft 441 kts 147°
2026-04-27 11:52 -12.68436 -54.83595 27202 ft 443 kts 147°
2026-04-27 11:52 -12.71062 -54.81920 27549 ft 445 kts 147°
2026-04-27 11:53 -12.73692 -54.80242 27889 ft 447 kts 147°
2026-04-27 11:53 -12.76340 -54.78552 28225 ft 449 kts 147°
2026-04-27 11:53 -12.78997 -54.76857 28555 ft 451 kts 147°
2026-04-27 11:53 -12.81642 -54.75169 28875 ft 453 kts 147°
2026-04-27 11:54 -12.84322 -54.73458 29202 ft 455 kts 147°
2026-04-27 11:54 -12.87012 -54.71740 29514 ft 457 kts 148°
2026-04-27 11:54 -12.89723 -54.70009 29820 ft 459 kts 148°
2026-04-27 11:54 -12.92440 -54.68273 30096 ft 461 kts 148°
2026-04-27 11:55 -12.95167 -54.66530 30345 ft 463 kts 148°
2026-04-27 11:55 -12.97911 -54.64776 30597 ft 465 kts 148°
2026-04-27 11:55 -13.00665 -54.63015 30866 ft 466 kts 148°
2026-04-27 11:55 -13.03418 -54.61254 31105 ft 468 kts 148°
2026-04-27 11:56 -13.06188 -54.59482 31344 ft 469 kts 148°
2026-04-27 11:56 -13.08960 -54.57709 31616 ft 470 kts 148°
2026-04-27 11:56 -13.11735 -54.55932 31976 ft 468 kts 148°
2026-04-27 11:56 -13.14493 -54.54166 32354 ft 466 kts 148°
2026-04-27 11:57 -13.17245 -54.52404 32719 ft 465 kts 148°
2026-04-27 11:57 -13.19956 -54.50667 33035 ft 465 kts 148°
2026-04-27 11:57 -13.22699 -54.48909 33364 ft 465 kts 148°
2026-04-27 11:57 -13.25435 -54.47156 33744 ft 463 kts 148°
2026-04-27 11:58 -13.28164 -54.45406 34117 ft 461 kts 148°
2026-04-27 11:58 -13.30883 -54.43662 34422 ft 460 kts 148°
2026-04-27 11:58 -13.33604 -54.41917 34672 ft 461 kts 148°
2026-04-27 11:58 -13.36318 -54.40175 34933 ft 460 kts 148°
2026-04-27 11:59 -13.39040 -54.38428 35222 ft 460 kts 148°
2026-04-27 11:59 -13.41747 -54.36691 35519 ft 459 kts 148°
2026-04-27 11:59 -13.44457 -54.34950 35743 ft 459 kts 148°
2026-04-27 11:59 -13.47168 -54.33209 35984 ft 460 kts 148°
2026-04-27 12:00 -13.49879 -54.31467 36286 ft 458 kts 148°
2026-04-27 12:00 -13.52579 -54.29732 36594 ft 457 kts 148°
2026-04-27 12:00 -13.55239 -54.28022 36853 ft 456 kts 148°
2026-04-27 12:00 -13.57930 -54.26292 37085 ft 456 kts 148°
2026-04-27 12:01 -13.60633 -54.24553 37325 ft 456 kts 148°
2026-04-27 12:01 -13.63318 -54.22826 37595 ft 455 kts 148°
2026-04-27 12:01 -13.65995 -54.21102 37855 ft 454 kts 148°
2026-04-27 12:01 -13.68680 -54.19374 38090 ft 454 kts 149°
2026-04-27 12:02 -13.71324 -54.17672 38313 ft 454 kts 149°
2026-04-27 12:02 -13.73993 -54.15953 38551 ft 453 kts 149°
2026-04-27 12:02 -13.76664 -54.14232 38773 ft 452 kts 149°
2026-04-27 12:02 -13.79329 -54.12515 38947 ft 452 kts 149°
2026-04-27 12:03 -13.81996 -54.10795 39047 ft 453 kts 149°
2026-04-27 12:03 -13.87364 -54.07334 39055 ft 454 kts 149°
2026-04-27 12:04 -13.92712 -54.03883 39040 ft 451 kts 149°
2026-04-27 12:04 -13.98012 -54.00461 39041 ft 448 kts 149°
2026-04-27 12:05 -14.03248 -53.97079 39051 ft 446 kts 149°
2026-04-27 12:05 -14.08507 -53.93680 39047 ft 446 kts 149°
2026-04-27 12:06 -14.13762 -53.90282 39048 ft 446 kts 149°
2026-04-27 12:06 -14.19034 -53.86871 39053 ft 448 kts 149°
2026-04-27 12:07 -14.24331 -53.83442 39051 ft 450 kts 149°
2026-04-27 12:07 -14.29653 -53.79995 39055 ft 453 kts 149°
2026-04-27 12:08 -14.34965 -53.76552 39055 ft 455 kts 149°
2026-04-27 12:08 -14.40332 -53.73071 39051 ft 457 kts 149°
2026-04-27 12:09 -14.45718 -53.69575 39050 ft 458 kts 149°
2026-04-27 12:09 -14.51120 -53.66067 39049 ft 459 kts 149°
2026-04-27 12:10 -14.56524 -53.62557 39052 ft 459 kts 149°
2026-04-27 12:10 -14.62019 -53.59213 39058 ft 457 kts 152°
2026-04-27 12:11 -14.67555 -53.55988 39050 ft 457 kts 152°
2026-04-27 12:11 -14.73033 -53.52767 39051 ft 455 kts 152°
2026-04-27 12:12 -14.78531 -53.49503 39052 ft 454 kts 152°
2026-04-27 12:12 -14.84008 -53.46243 39058 ft 453 kts 152°
2026-04-27 12:13 -14.89475 -53.42988 39050 ft 453 kts 152°
2026-04-27 12:13 -14.94931 -53.39738 39053 ft 452 kts 152°
2026-04-27 12:14 -15.00382 -53.36490 39050 ft 452 kts 152°
2026-04-27 12:14 -15.05819 -53.33310 39051 ft 452 kts 153°
2026-04-27 12:15 -15.11326 -53.30159 39046 ft 452 kts 153°
2026-04-27 12:15 -15.15944 -53.27511 39052 ft 453 kts 153°
2026-04-27 12:16 -15.21456 -53.24337 39050 ft 454 kts 153°
2026-04-27 12:16 -15.26976 -53.21152 39047 ft 455 kts 153°
2026-04-27 12:17 -15.32507 -53.17958 39043 ft 456 kts 153°
2026-04-27 12:17 -15.38020 -53.14773 39048 ft 456 kts 153°
2026-04-27 12:18 -15.43568 -53.11566 39050 ft 457 kts 153°
2026-04-27 12:18 -15.49115 -53.08358 39045 ft 457 kts 153°
2026-04-27 12:19 -15.54682 -53.05135 39046 ft 458 kts 153°
2026-04-27 12:19 -15.60251 -53.01907 39048 ft 458 kts 153°
2026-04-27 12:20 -15.65808 -52.98684 39040 ft 458 kts 153°
2026-04-27 12:20 -15.71367 -52.95458 39046 ft 457 kts 153°
2026-04-27 12:21 -15.76887 -52.92252 39045 ft 457 kts 153°
2026-04-27 12:21 -15.82438 -52.89026 39043 ft 457 kts 153°
2026-04-27 12:22 -15.87988 -52.85800 39047 ft 457 kts 153°
2026-04-27 12:22 -15.93532 -52.82574 39045 ft 457 kts 153°
2026-04-27 12:23 -15.99072 -52.79348 39045 ft 456 kts 153°
2026-04-27 12:23 -16.04611 -52.76122 39044 ft 456 kts 153°
2026-04-27 12:24 -16.10151 -52.72892 39047 ft 456 kts 153°
2026-04-27 12:24 -16.15685 -52.69664 39050 ft 456 kts 153°
2026-04-27 12:25 -16.21218 -52.66434 39047 ft 456 kts 153°
2026-04-27 12:25 -16.26752 -52.63202 39058 ft 456 kts 153°
2026-04-27 12:26 -16.32295 -52.59962 39054 ft 456 kts 153°
2026-04-27 12:26 -16.37839 -52.56720 39051 ft 456 kts 153°
2026-04-27 12:27 -16.43348 -52.53495 39053 ft 457 kts 153°
2026-04-27 12:27 -16.48892 -52.50249 39051 ft 457 kts 153°
2026-04-27 12:28 -16.54433 -52.47001 39059 ft 457 kts 153°
2026-04-27 12:28 -16.59976 -52.43750 39061 ft 457 kts 153°
2026-04-27 12:29 -16.65515 -52.40500 39064 ft 457 kts 153°
2026-04-27 12:29 -16.71054 -52.37257 39063 ft 457 kts 153°
2026-04-27 12:30 -16.76605 -52.34008 39075 ft 457 kts 153°
2026-04-27 12:30 -16.82151 -52.30757 39068 ft 457 kts 153°
2026-04-27 12:31 -16.87659 -52.27526 39064 ft 457 kts 153°
2026-04-27 12:31 -16.93206 -52.24269 39067 ft 457 kts 153°
2026-04-27 12:32 -16.98751 -52.21011 39067 ft 457 kts 153°
2026-04-27 12:32 -17.04300 -52.17749 39074 ft 457 kts 153°
2026-04-27 12:33 -17.09853 -52.14509 39078 ft 457 kts 153°
2026-04-27 12:33 -17.15386 -52.11313 39080 ft 457 kts 153°
2026-04-27 12:34 -17.20959 -52.08091 39082 ft 457 kts 153°
2026-04-27 12:34 -17.26519 -52.04870 39088 ft 457 kts 153°
2026-04-27 12:35 -17.32089 -52.01637 39083 ft 457 kts 153°
2026-04-27 12:35 -17.37612 -51.98429 39083 ft 457 kts 153°
2026-04-27 12:36 -17.43173 -51.95197 39085 ft 457 kts 153°
2026-04-27 12:36 -17.48735 -51.91963 39091 ft 457 kts 153°
2026-04-27 12:37 -17.54304 -51.88721 39090 ft 457 kts 153°
2026-04-27 12:37 -17.59875 -51.85477 39083 ft 457 kts 153°
2026-04-27 12:38 -17.65435 -51.82237 39086 ft 457 kts 153°
2026-04-27 12:38 -17.70959 -51.79015 39082 ft 457 kts 153°
2026-04-27 12:39 -17.76523 -51.75768 39083 ft 457 kts 153°
2026-04-27 12:39 -17.82079 -51.72522 39083 ft 457 kts 153°
2026-04-27 12:40 -17.87646 -51.69268 39083 ft 457 kts 153°
2026-04-27 12:40 -17.91228 -51.67174 39084 ft 457 kts 153°
2026-04-27 12:41 -17.91342 -51.67107 39080 ft 457 kts 153°
2026-04-27 12:41 -17.96871 -51.63872 39090 ft 457 kts 153°
2026-04-27 12:42 -18.02448 -51.60605 39077 ft 458 kts 153°
2026-04-27 12:42 -18.08019 -51.57340 39074 ft 458 kts 153°
2026-04-27 12:43 -18.13546 -51.54098 39077 ft 458 kts 153°
2026-04-27 12:43 -18.19120 -51.50826 39071 ft 458 kts 153°
2026-04-27 12:44 -18.24688 -51.47555 39070 ft 458 kts 153°
2026-04-27 12:44 -18.30232 -51.44214 39069 ft 459 kts 152°
2026-04-27 12:45 -18.35732 -51.40793 39067 ft 459 kts 151°
2026-04-27 12:45 -18.41241 -51.37376 39066 ft 459 kts 152°
2026-04-27 12:46 -18.46749 -51.33973 39069 ft 459 kts 152°
2026-04-27 12:46 -18.52260 -51.30566 39061 ft 459 kts 152°
2026-04-27 12:47 -18.57766 -51.27155 39073 ft 459 kts 151°
2026-04-27 12:47 -18.63274 -51.23738 39067 ft 459 kts 151°
2026-04-27 12:48 -18.68778 -51.20321 39066 ft 459 kts 152°
2026-04-27 12:48 -18.74248 -51.16923 39063 ft 459 kts 152°
2026-04-27 12:49 -18.79769 -51.13490 39063 ft 459 kts 152°
2026-04-27 12:49 -18.85279 -51.10062 39063 ft 460 kts 152°
2026-04-27 12:50 -18.90793 -51.06628 39064 ft 460 kts 152°
2026-04-27 12:50 -18.96274 -51.03211 39066 ft 460 kts 152°
2026-04-27 12:51 -19.01784 -50.99772 39059 ft 460 kts 151°
2026-04-27 12:51 -19.07244 -50.96230 39065 ft 461 kts 150°
2026-04-27 12:52 -19.12698 -50.92628 39068 ft 461 kts 150°
2026-04-27 12:52 -19.18147 -50.89039 39058 ft 462 kts 150°
2026-04-27 12:53 -19.26340 -50.83658 39062 ft 462 kts 150°
2026-04-27 12:53 -19.31771 -50.80091 39066 ft 462 kts 150°
2026-04-27 12:54 -19.37276 -50.76472 39058 ft 463 kts 150°
2026-04-27 12:54 -19.42715 -50.72893 39062 ft 463 kts 150°
2026-04-27 12:55 -19.48196 -50.69283 39061 ft 464 kts 150°
2026-04-27 12:55 -19.53677 -50.65670 39055 ft 464 kts 150°
2026-04-27 12:56 -19.59174 -50.62043 39065 ft 464 kts 150°
2026-04-27 12:56 -19.64667 -50.58416 39062 ft 465 kts 150°
2026-04-27 12:57 -19.70179 -50.54817 39062 ft 465 kts 151°
2026-04-27 12:57 -19.75708 -50.51263 39055 ft 465 kts 151°
2026-04-27 12:58 -19.81210 -50.47723 39068 ft 465 kts 151°
2026-04-27 12:58 -19.86743 -50.44149 39056 ft 466 kts 151°
2026-04-27 12:59 -19.92282 -50.40565 39057 ft 466 kts 151°
2026-04-27 12:59 -19.97825 -50.36975 39060 ft 466 kts 151°
2026-04-27 13:00 -20.02426 -50.33994 39063 ft 466 kts 151°
2026-04-27 13:00 -20.07965 -50.30401 39059 ft 466 kts 151°
2026-04-27 13:01 -20.13521 -50.26837 39058 ft 465 kts 153°
2026-04-27 13:01 -20.19177 -50.23483 39053 ft 465 kts 154°
2026-04-27 13:02 -20.24816 -50.20198 39058 ft 465 kts 154°
2026-04-27 13:02 -20.30480 -50.16867 39053 ft 465 kts 153°
2026-04-27 13:03 -20.36131 -50.13515 39053 ft 465 kts 153°
2026-04-27 13:03 -20.41779 -50.10154 39053 ft 464 kts 153°
2026-04-27 13:04 -20.47418 -50.06796 39058 ft 464 kts 153°
2026-04-27 13:04 -20.53060 -50.03434 39051 ft 464 kts 153°
2026-04-27 13:05 -20.58702 -50.00070 39048 ft 465 kts 153°
2026-04-27 13:05 -20.64349 -49.96700 39047 ft 465 kts 153°
2026-04-27 13:06 -20.69988 -49.93332 39053 ft 465 kts 153°
2026-04-27 13:06 -20.75631 -49.89959 39046 ft 465 kts 153°
2026-04-27 13:07 -20.81282 -49.86577 39042 ft 465 kts 153°
2026-04-27 13:07 -20.86896 -49.83215 39039 ft 465 kts 153°
2026-04-27 13:08 -20.92547 -49.79829 39048 ft 466 kts 153°
2026-04-27 13:08 -20.98209 -49.76431 39046 ft 466 kts 153°
2026-04-27 13:09 -21.03863 -49.73037 39041 ft 466 kts 153°
2026-04-27 13:09 -21.09524 -49.69635 39044 ft 466 kts 153°
2026-04-27 13:10 -21.15191 -49.66227 39040 ft 466 kts 153°
2026-04-27 13:10 -21.20854 -49.62817 39036 ft 467 kts 153°
2026-04-27 13:11 -21.26516 -49.59406 39036 ft 467 kts 153°
2026-04-27 13:11 -21.32176 -49.55992 39034 ft 467 kts 153°
2026-04-27 13:12 -21.37809 -49.52592 39033 ft 467 kts 154°
2026-04-27 13:12 -21.43478 -49.49167 39036 ft 467 kts 153°
2026-04-27 13:13 -21.49141 -49.45742 39032 ft 467 kts 153°
2026-04-27 13:13 -21.54797 -49.42319 39031 ft 467 kts 153°
2026-04-27 13:14 -21.60456 -49.38891 39031 ft 467 kts 154°
2026-04-27 13:14 -21.66111 -49.35462 39035 ft 467 kts 154°
2026-04-27 13:15 -21.71773 -49.32026 39033 ft 467 kts 154°
2026-04-27 13:15 -21.77443 -49.28582 39045 ft 468 kts 154°
2026-04-27 13:16 -21.83120 -49.25130 39039 ft 469 kts 154°
2026-04-27 13:16 -21.88799 -49.21673 39036 ft 469 kts 154°
2026-04-27 13:17 -21.94454 -49.18228 39037 ft 470 kts 154°
2026-04-27 13:17 -22.00146 -49.14757 39038 ft 470 kts 154°
2026-04-27 13:18 -22.05847 -49.11278 39054 ft 471 kts 154°
2026-04-27 13:18 -22.11251 -49.07244 39068 ft 477 kts 139°
2026-04-27 13:19 -22.15685 -49.01888 39082 ft 479 kts 132°
2026-04-27 13:19 -22.20018 -48.96414 39080 ft 479 kts 133°
2026-04-27 13:20 -22.24423 -48.90993 39084 ft 479 kts 134°
2026-04-27 13:20 -22.28841 -48.85600 39076 ft 479 kts 134°
2026-04-27 13:21 -22.33227 -48.80245 39068 ft 479 kts 134°
2026-04-27 13:21 -22.37636 -48.74826 39038 ft 479 kts 133°
2026-04-27 13:22 -22.42032 -48.69412 39047 ft 479 kts 133°
2026-04-27 13:22 -22.46409 -48.64018 39046 ft 479 kts 133°
2026-04-27 13:23 -22.50810 -48.58591 39049 ft 480 kts 133°
2026-04-27 13:23 -22.55211 -48.53157 39036 ft 481 kts 133°
2026-04-27 13:24 -22.59479 -48.47786 39012 ft 458 kts 128°
2026-04-27 13:24 -22.61168 -48.44921 39028 ft 447 kts 119°
2026-04-27 13:24 -22.62433 -48.41847 39027 ft 446 kts 109°
2026-04-27 13:25 -22.64423 -48.35416 39054 ft 455 kts 108°
2026-04-27 13:25 -22.66446 -48.28851 39050 ft 462 kts 109°
2026-04-27 13:26 -22.68507 -48.22295 39035 ft 465 kts 109°
2026-04-27 13:26 -22.70603 -48.15665 39044 ft 466 kts 109°
2026-04-27 13:27 -22.72700 -48.09016 39032 ft 466 kts 109°
2026-04-27 13:27 -22.74745 -48.02358 39022 ft 464 kts 107°
2026-04-27 13:28 -22.76576 -47.95662 39019 ft 461 kts 108°
2026-04-27 13:28 -22.77808 -47.92506 39026 ft 458 kts 119°
2026-04-27 13:28 -22.79382 -47.89461 39035 ft 456 kts 121°
2026-04-27 13:29 -22.82436 -47.83494 39024 ft 455 kts 118°
2026-04-27 13:29 -22.85369 -47.77425 39020 ft 453 kts 118°
2026-04-27 13:30 -22.88271 -47.71366 39020 ft 451 kts 118°
2026-04-27 13:30 -22.91164 -47.65341 39031 ft 450 kts 118°
2026-04-27 13:31 -22.94064 -47.59308 39021 ft 451 kts 118°
2026-04-27 13:31 -22.96968 -47.53260 39028 ft 452 kts 118°
2026-04-27 13:32 -22.99878 -47.47191 39049 ft 454 kts 118°
2026-04-27 13:32 -23.02802 -47.41088 39068 ft 456 kts 118°
2026-04-27 13:33 -23.05723 -47.34986 39073 ft 459 kts 118°
2026-04-27 13:33 -23.08669 -47.28824 39098 ft 461 kts 118°
2026-04-27 13:34 -23.11555 -47.22589 39081 ft 463 kts 108°
2026-04-27 13:34 -23.12144 -47.19183 39103 ft 457 kts 87°
2026-04-27 13:34 -23.11783 -47.15783 39092 ft 451 kts 70°
2026-04-27 13:35 -23.10673 -47.12629 39110 ft 444 kts 56°
2026-04-27 13:35 -23.08899 -47.09941 39111 ft 434 kts 42°
2026-04-27 13:35 -23.04753 -47.05184 39100 ft 434 kts 41°
2026-04-27 13:36 -23.00635 -47.00429 39091 ft 436 kts 42°
2026-04-27 13:36 -22.96520 -46.95588 39073 ft 437 kts 42°
2026-04-27 13:37 -22.92391 -46.90733 39073 ft 437 kts 42°
2026-04-27 13:37 -22.88261 -46.85888 39023 ft 436 kts 42°
2026-04-27 13:38 -22.84791 -46.80502 39061 ft 438 kts 59°
2026-04-27 13:38 -22.81996 -46.74631 39054 ft 438 kts 57°
2026-04-27 13:39 -22.80682 -46.71635 39026 ft 444 kts 68°
2026-04-27 13:39 -22.79800 -46.68425 39058 ft 445 kts 72°
2026-04-27 13:39 -22.78288 -46.61908 39030 ft 448 kts 79°
2026-04-27 13:40 -22.77981 -46.55181 39046 ft 450 kts 85°
2026-04-27 13:40 -22.78240 -46.48413 39062 ft 452 kts 101°
2026-04-27 13:41 -22.79476 -46.41728 39061 ft 453 kts 102°
2026-04-27 13:41 -22.80562 -46.38536 39027 ft 452 kts 124°
2026-04-27 13:41 -22.82620 -46.36032 39047 ft 444 kts 148°
2026-04-27 13:42 -22.85333 -46.34572 39047 ft 431 kts 172°
2026-04-27 13:42 -22.88257 -46.34289 39080 ft 419 kts 189°
2026-04-27 13:42 -22.93930 -46.35541 39045 ft 414 kts 210°
2026-04-27 13:43 -22.95599 -46.36516 39036 ft 409 kts 221°
2026-04-27 13:43 -22.97772 -46.38465 39067 ft 405 kts 226°
2026-04-27 13:43 -23.02944 -46.42925 39048 ft 412 kts 220°
2026-04-27 13:44 -23.07741 -46.46301 39022 ft 407 kts 217°
2026-04-27 13:44 -23.11739 -46.48941 39027 ft 403 kts 217°
2026-04-27 13:45 -23.16538 -46.52111 39031 ft 403 kts 217°
2026-04-27 13:45 -23.21327 -46.55299 39072 ft 404 kts 218°
2026-04-27 13:46 -23.26034 -46.58633 39080 ft 404 kts 219°